Latest Weather Observations for Mount Boyce

IDN60901

Issued at 2:15 pm EST Tuesday 23 September 2014 (issued every 10 minutes, with the page automatically refreshed every 10 minutes)

About weather observations | Map of Sydney area stations | Latest observations for Sydney area | Other Formats
Station Details ID: 063292 Name: MOUNT BOYCE AWS Lat: -33.62 Lon: 150.27 Height: 1080.0 m
Data from the previous 72 hours. | See also: Recent months at Mount Boyce
Date/Time
EST
Tmp

°C
App
Tmp
°C
Dew
Point
°C
Rel
Hum
%
Delta-T

°C
Wind Press
QNH
hPa
Press
MSL
hPa
Rain
since
9 am
mm
Dir
 
Spd
km/h
Gust
km/h
Spd
kts
Gust
kts
23/02:00pm 18.7 15.5 2.9 35 7.8 E 9 15 5 8 - - 0.2
23/01:30pm 18.0 14.7 2.3 35 7.6 NE 9 17 5 9 - - 0.2
23/01:00pm 18.2 15.4 3.3 37 7.4 E 7 13 4 7 - - 0.2
23/12:30pm 17.1 13.5 0.7 33 7.6 NE 9 17 5 9 - - 0.2
23/12:00pm 16.6 13.3 2.2 38 6.9 N 9 17 5 9 - - 0.2
23/11:30am 16.8 13.0 1.7 36 7.1 NNE 11 20 6 11 - - 0.2
23/11:00am 16.7 13.9 3.4 41 6.5 NNE 7 15 4 8 - - 0.0
23/10:30am 15.0 11.9 1.2 39 6.4 NNE 7 15 4 8 - - 0.0
23/10:00am 14.6 11.5 1.2 40 6.2 N 7 11 4 6 - - 0.0
23/09:30am 13.9 10.5 -0.9 36 6.5 NNE 7 11 4 6 - - 0.0
23/09:00am 13.0 9.6 -0.6 39 5.9 NNE 7 13 4 7 - - -
23/08:30am 12.5 9.6 1.2 46 5.1 NE 6 13 3 7 - - -
23/08:00am 11.2 8.6 3.0 57 3.8 NE 6 13 3 7 - - -
23/07:30am 9.5 6.8 3.7 67 2.7 ENE 7 13 4 7 - - -
23/07:00am 8.7 6.1 4.1 73 2.1 NE 7 11 4 6 - - -
23/06:30am 8.1 6.2 2.8 69 2.4 NNE 2 7 1 4 - - -
23/06:00am 7.3 5.9 3.4 76 1.8 CALM 0 0 0 0 - - -
23/05:30am 6.9 5.3 2.6 74 1.9 CALM 0 0 0 0 - - -
23/05:00am 7.8 6.3 2.9 71 2.2 CALM 0 0 0 0 - - -
23/04:30am 8.0 5.5 3.8 75 1.9 NNW 6 7 3 4 - - -
23/04:00am 7.2 5.5 3.8 79 1.6 NW 2 7 1 4 - - -
23/03:30am 7.2 5.5 4.2 81 1.4 NNW 2 6 1 3 - - -
23/03:00am 7.5 5.5 4.6 82 1.4 NNE 4 7 2 4 - - 0.0
23/02:30am 7.0 5.9 5.0 87 0.9 CALM 0 0 0 0 - - -
23/02:00am 7.4 5.8 4.7 83 1.3 N 2 7 1 4 - - -
23/01:30am 7.7 5.4 5.5 86 1.1 NNE 7 9 4 5 - - -
23/01:00am 7.5 5.2 5.6 88 0.9 NNE 7 9 4 5 - - -
23/12:30am 7.6 5.5 5.7 88 0.9 NNE 6 7 3 4 - - -
23/12:00am 7.7 5.4 5.7 87 1.0 NNE 7 7 4 4 - - -
 
Date/Time
EST
Tmp

°C
App
Tmp
°C
Dew
Point
°C
Rel
Hum
%
Delta-T

°C
Wind Press
QNH
hPa
Press
MSL
hPa
Rain
since
9 am
mm
Dir
 
Spd
km/h
Gust
km/h
Spd
kts
Gust
kts
22/11:30pm 7.6 5.3 5.9 89 0.8 N 7 9 4 5 - - -
22/11:00pm 7.2 5.0 6.0 92 0.6 N 7 9 4 5 - - -
22/10:30pm 6.6 3.9 5.7 94 0.4 NE 9 13 5 7 - - -
22/10:00pm 6.7 4.0 5.7 93 0.5 NE 9 13 5 7 - - -
22/09:30pm 6.7 4.0 5.8 94 0.4 NE 9 13 5 7 - - -
22/09:00pm 6.7 4.0 5.7 93 0.5 ENE 9 13 5 7 - - 0.0
22/08:30pm 6.7 3.9 5.3 91 0.7 ENE 9 13 5 7 - - -
22/08:00pm 7.2 4.1 5.5 89 0.8 ENE 11 13 6 7 - - -
22/07:30pm 7.6 4.8 5.2 85 1.1 E 9 15 5 8 - - -
22/07:00pm 8.4 4.8 4.8 78 1.7 ENE 13 20 7 11 - - -
22/06:30pm 9.0 5.7 4.6 74 2.1 ENE 11 19 6 10 - - -
22/06:00pm 10.1 6.8 4.7 69 2.6 ENE 11 19 6 10 - - -
22/05:30pm 12.1 8.5 5.0 62 3.5 ENE 13 20 7 11 - - -
22/05:00pm 13.7 10.7 5.8 59 4.0 ENE 11 19 6 10 - - -
22/04:30pm 14.4 11.3 5.5 55 4.5 ENE 11 19 6 10 - - -
22/04:00pm 15.6 12.9 5.5 51 5.1 ENE 9 17 5 9 - - -
22/03:30pm 16.7 13.9 5.3 47 5.8 E 9 17 5 9 - - -
22/03:00pm 16.9 14.4 4.9 45 6.1 E 7 11 4 6 - - -
22/02:30pm 17.4 14.8 3.3 39 6.9 WSW 6 9 3 5 - - -
22/02:00pm 16.3 13.4 2.7 40 6.5 W 7 13 4 7 - - -
22/01:00pm 14.9 11.0 3.4 46 5.6 WNW 13 19 7 10 - - 0.0
22/12:30pm 14.1 10.6 3.3 48 5.2 W 11 15 6 8 - - 0.0
22/12:00pm 13.0 9.8 3.1 51 4.7 WSW 9 19 5 10 - - 0.0
22/11:30am 12.4 9.3 3.6 55 4.2 NW 9 19 5 10 - - 0.0
22/11:00am 12.4 10.5 5.1 61 3.6 WSW 4 13 2 7 - - 0.0
22/10:30am 11.3 8.8 3.6 59 3.6 WSW 6 9 3 5 - - 0.0
22/10:00am 12.0 10.1 4.7 61 3.5 E 4 11 2 6 - - 0.0
22/09:30am 10.9 8.3 4.1 63 3.2 NNE 7 11 4 6 - - 0.0
22/09:00am 8.4 5.2 3.3 70 2.3 NNE 9 17 5 9 - - 0.0
22/08:30am 9.0 6.4 4.2 72 2.3 NNE 7 13 4 7 - - 0.0
22/08:00am 8.0 5.4 4.0 76 1.9 NE 7 13 4 7 - - 0.0
22/07:30am 6.5 4.9 4.5 87 0.9 E 2 9 1 5 - - 0.0
22/07:13am 6.3 4.0 4.8 90 0.7 NE 6 11 3 6 - - 0.0
22/07:00am 5.8 4.7 5.1 95 0.3 CALM 0 7 0 4 - - 0.0
22/06:30am 5.6 4.5 5.2 97 0.2 CALM 0 0 0 0 - - 0.0
22/06:00am 5.1 3.5 4.7 97 0.2 NE 2 7 1 4 - - 0.0
22/05:44am 4.7 2.3 4.1 96 0.3 NE 6 7 3 4 - - 0.0
22/05:40am 4.6 2.1 4.0 96 0.3 NE 6 7 3 4 - - 0.0
22/05:38am 4.6 2.1 4.0 96 0.3 NE 6 7 3 4 - - 0.0
22/05:30am 4.8 2.8 4.4 97 0.2 NE 4 7 2 4 - - 0.0
22/05:00am 5.0 3.8 4.6 97 0.2 CALM 0 0 0 0 - - 0.0
22/04:30am 4.9 3.6 4.3 96 0.3 CALM 0 0 0 0 - - 0.0
22/04:16am 4.9 3.6 4.3 96 0.3 CALM 0 0 0 0 - - 0.0
22/04:04am 4.7 3.4 4.1 96 0.3 CALM 0 0 0 0 - - 0.0
22/04:03am 4.7 3.4 4.1 96 0.3 CALM 0 0 0 0 - - 0.0
22/04:00am 4.8 3.5 4.2 96 0.3 CALM 0 0 0 0 - - 0.0
22/03:39am 5.3 3.7 4.7 96 0.3 ENE 2 7 1 4 - - 0.0
22/03:30am 5.2 4.0 4.6 96 0.3 CALM 0 4 0 2 - - 0.0
22/03:00am 5.1 3.1 4.5 96 0.3 ENE 4 9 2 5 - - 0.0
22/02:56am 5.1 3.5 4.5 96 0.3 ENE 2 7 1 4 - - 0.0
22/02:47am 5.3 3.0 4.7 96 0.3 NE 6 7 3 4 - - 0.0
22/02:30am 5.4 3.1 4.8 96 0.3 ENE 6 7 3 4 - - 0.0
22/02:29am 5.4 3.1 4.8 96 0.3 ENE 6 7 3 4 - - 0.0
22/02:00am 5.5 3.0 4.9 96 0.3 ENE 7 9 4 5 - - 0.0
22/01:32am 5.2 3.6 4.3 94 0.4 E 2 9 1 5 - - 0.0
22/01:30am 5.1 3.4 4.2 94 0.4 E 2 7 1 4 - - 0.0
22/01:06am 5.2 3.9 4.0 92 0.5 CALM 0 0 0 0 - - 0.0
22/01:00am 5.3 3.6 4.1 92 0.5 ENE 2 6 1 3 - - 0.0
22/12:30am 5.8 3.5 4.6 92 0.6 ENE 6 9 3 5 - - 0.0
22/12:00am 6.5 3.8 5.5 93 0.5 ENE 9 13 5 7 - - 0.0
 
Date/Time
EST
Tmp

°C
App
Tmp
°C
Dew
Point
°C
Rel
Hum
%
Delta-T

°C
Wind Press
QNH
hPa
Press
MSL
hPa
Rain
since
9 am
mm
Dir
 
Spd
km/h
Gust
km/h
Spd
kts
Gust
kts
21/11:30pm 6.8 5.1 5.7 93 0.5 ENE 4 11 2 6 - - 0.0
21/11:00pm 7.2 4.9 5.8 91 0.7 ENE 7 13 4 7 - - 0.0
21/10:30pm 7.2 5.0 6.1 93 0.5 ENE 7 13 4 7 - - 0.0
21/10:06pm 7.3 4.7 6.2 93 0.5 ENE 9 17 5 9 - - 0.0
21/10:00pm 7.3 4.7 6.2 93 0.5 ENE 9 15 5 8 - - 0.0
21/09:48pm 7.3 4.7 6.2 93 0.5 ENE 9 15 5 8 - - 0.0
21/09:30pm 7.3 4.3 6.1 92 0.6 ENE 11 24 6 13 - - 0.0
21/09:00pm 7.4 4.4 6.0 91 0.7 ENE 11 19 6 10 - - 0.0
21/08:30pm 7.6 4.2 6.1 90 0.7 ENE 13 26 7 14 - - 0.0
21/08:00pm 8.0 4.6 6.1 88 0.9 ENE 13 20 7 11 - - 0.0
21/07:30pm 8.2 4.5 6.2 87 1.0 ENE 15 24 8 13 - - 0.0
21/07:05pm 8.0 4.2 5.8 86 1.1 ENE 15 24 8 13 - - 0.0
21/07:00pm 7.9 4.4 5.5 85 1.1 ENE 13 20 7 11 - - 0.0
21/06:30pm 8.5 4.8 4.7 77 1.8 ENE 13 24 7 13 - - 0.0
21/06:00pm 9.6 6.3 4.8 72 2.3 ENE 11 26 6 14 - - 0.0
21/05:30pm 11.7 8.5 5.3 65 3.1 E 11 19 6 10 - - 0.0
21/05:00pm 13.4 10.5 4.6 55 4.3 E 9 19 5 10 - - 0.0
21/04:30pm 14.8 12.1 3.9 48 5.3 ESE 7 13 4 7 - - 0.0
21/04:00pm 15.7 13.1 3.2 43 6.0 SSE 6 11 3 6 - - 0.0
21/03:30pm 14.8 10.9 1.3 40 6.2 W 11 19 6 10 - - 0.0
21/03:00pm 16.2 13.8 4.3 45 5.9 SSE 6 13 3 7 - - 0.0
21/02:30pm 15.1 11.3 2.0 41 6.2 W 11 17 6 9 - - 0.0
21/02:00pm 13.9 11.7 3.1 48 5.1 NE 4 9 2 5 - - 0.0
21/01:30pm 13.8 11.3 3.6 50 4.9 NNW 6 13 3 7 - - 0.0
21/01:00pm 13.0 10.4 3.4 52 4.6 N 6 11 3 6 - - 0.0
21/12:30pm 12.1 9.6 3.9 57 3.9 NE 6 11 3 6 - - 0.0
21/12:00pm 13.1 11.1 4.3 55 4.3 NW 4 11 2 6 - - 0.0
21/11:30am 12.3 9.3 2.2 50 4.7 E 7 13 4 7 - - 0.0
21/11:00am 12.2 9.5 3.9 57 4.0 ENE 7 13 4 7 - - 0.0
21/10:30am 11.7 8.8 4.9 63 3.3 E 9 17 5 9 - - 0.0
21/10:00am 10.1 7.6 4.7 69 2.6 ENE 7 15 4 8 - - 0.0
21/09:57am 10.4 8.2 5.2 70 2.5 ENE 6 15 3 8 - - 0.0
21/09:30am 10.0 7.1 4.4 68 2.7 ENE 9 19 5 10 - - 0.0
21/09:09am 9.9 7.1 5.1 72 2.3 ENE 9 17 5 9 - - 0.0
21/09:02am 9.6 6.3 4.8 72 2.3 ENE 11 17 6 9 - - 0.0
21/09:00am 9.4 6.1 4.4 71 2.4 ENE 11 17 6 9 - - 0.0
21/08:30am 8.5 6.6 5.1 79 1.6 ENE 4 13 2 7 - - 0.0
21/08:11am 7.7 4.8 4.8 82 1.4 E 9 15 5 8 - - 0.0
21/08:00am 8.1 5.4 5.6 84 1.2 ENE 9 13 5 7 - - 0.0
21/07:30am 6.0 4.0 4.3 89 0.8 SSE 4 11 2 6 - - 0.0
21/07:00am 4.2 2.0 3.2 93 0.4 ENE 4 9 2 5 - - 0.0
21/06:30am 3.2 1.6 2.3 94 0.4 CALM 0 4 0 2 - - 0.0
21/06:00am 3.0 0.2 2.1 94 0.4 E 6 7 3 4 - - 0.0
21/05:30am 3.0 1.4 2.3 95 0.3 CALM 0 0 0 0 - - 0.0
21/05:00am 3.7 2.2 3.1 96 0.3 CALM 0 0 0 0 - - 0.0
21/04:30am 3.7 0.9 3.0 95 0.3 E 7 11 4 6 - - 0.0
21/04:00am 3.8 1.9 2.9 94 0.4 ENE 2 7 1 4 - - 0.0
21/03:30am 4.0 1.3 2.8 92 0.5 E 6 9 3 5 - - 0.0
21/03:08am 4.6 2.4 3.4 92 0.5 ENE 4 11 2 6 - - 0.0
21/03:00am 4.9 2.4 3.7 92 0.5 E 6 11 3 6 - - 0.0
21/02:50am 5.2 3.5 4.0 92 0.5 ENE 2 7 1 4 - - 0.0
21/02:44am 5.2 3.5 4.0 92 0.5 ENE 2 9 1 5 - - 0.0
21/02:30am 5.3 2.8 4.0 91 0.6 E 6 9 3 5 - - 0.0
21/02:18am 5.4 3.3 4.1 91 0.6 E 4 9 2 5 - - 0.0
21/02:00am 5.7 4.1 4.3 91 0.6 SE 2 7 1 4 - - 0.0
21/01:30am 5.9 3.4 4.7 92 0.6 ESE 7 15 4 8 - - 0.0
21/01:00am 5.8 4.2 4.4 91 0.6 E 2 7 1 4 - - 0.0
21/12:54am 5.8 4.2 4.4 91 0.6 E 2 7 1 4 - - 0.0
21/12:48am 5.7 3.7 4.3 91 0.6 E 4 13 2 7 - - 0.0
21/12:30am 5.8 3.3 4.6 92 0.6 E 7 15 4 8 - - 0.0
21/12:00am 5.8 3.4 4.3 90 0.7 E 6 9 3 5 - - 0.0
 
Date/Time
EST
Tmp

°C
App
Tmp
°C
Dew
Point
°C
Rel
Hum
%
Delta-T

°C
Wind Press
QNH
hPa
Press
MSL
hPa
Rain
since
9 am
mm
Dir
 
Spd
km/h
Gust
km/h
Spd
kts
Gust
kts
20/11:30pm 6.0 3.6 4.3 89 0.8 ESE 6 9 3 5 - - 0.0
20/11:07pm 6.0 3.5 4.0 87 0.9 ENE 6 11 3 6 - - 0.0
20/11:00pm 5.9 3.4 3.9 87 0.9 E 6 11 3 6 - - 0.0
20/10:30pm 6.0 3.4 3.0 81 1.3 ENE 6 9 3 5 - - 0.0
20/10:00pm 6.1 3.4 2.7 79 1.5 E 6 11 3 6 - - 0.0
20/09:58pm 6.1 3.4 2.9 80 1.4 E 6 11 3 6 - - 0.0
20/09:30pm 6.2 3.1 3.4 82 1.3 E 9 13 5 7 - - 0.0
20/09:22pm 6.2 3.1 3.5 83 1.2 E 9 13 5 7 - - 0.0
20/09:12pm 6.2 3.1 3.5 83 1.2 E 9 19 5 10 - - 0.0
20/09:00pm 6.3 2.9 4.0 85 1.0 E 11 17 6 9 - - 0.0
20/08:30pm 5.9 2.9 4.1 88 0.8 E 9 19 5 10 - - 0.0
20/08:00pm 5.6 2.2 3.8 88 0.8 ENE 11 17 6 9 - - 0.0
20/07:31pm 5.9 2.5 4.1 88 0.8 ENE 11 19 6 10 - - 0.0
20/07:30pm 5.9 2.5 4.1 88 0.8 ENE 11 19 6 10 - - 0.0
20/07:00pm 6.1 2.7 3.9 86 1.0 ENE 11 19 6 10 - - 0.0
20/06:30pm 6.8 3.0 4.1 83 1.2 ENE 13 22 7 12 - - 0.0
20/06:00pm 7.7 4.3 4.1 78 1.7 E 11 19 6 10 - - 0.0
20/05:30pm 9.4 6.0 4.0 69 2.5 E 11 19 6 10 - - 0.0
20/05:00pm 11.5 8.1 4.0 60 3.6 E 11 22 6 12 - - 0.0
20/04:30pm 12.4 9.3 3.6 55 4.2 E 9 13 5 7 - - 0.0
20/04:00pm 11.7 8.5 3.0 55 4.1 E 9 17 5 9 - - 0.0
20/03:30pm 12.1 8.4 2.6 52 4.4 E 11 22 6 12 - - 0.0
20/03:00pm 13.1 9.9 3.2 51 4.7 ENE 9 15 5 8 - - 0.0
20/02:30pm 12.9 9.6 2.5 49 4.8 E 9 17 5 9 - - 0.0

Latest Capital City Observations: Canberra | Sydney | Melbourne | Brisbane | Adelaide | Perth | Hobart | Darwin

Other Formats:

Comma delimited format used in spreadsheet applications
http://www.bom.gov.au/fwo/IDN60901/IDN60901.94743.axf

JavaScript Object Notation format (JSON) in row-major order
http://www.bom.gov.au/fwo/IDN60901/IDN60901.94743.json